DECAYED

STARLINK-1412, 45707 (Decayed)

Orbit data source: Space-Track

STARLINK-1412, 45707 was a payload satellite owned by SpaceX/Seattle (US) in LEO that was launched on Thu, 04 Jun 2020 UTC via an FALCON 9 launch vehicle from the Air Force Eastern Test Range (AFETR). Payload-class satellites include a variety of spacecraft equipped with specific instruments for various scientific and technological missions. These include communications satellites like Starlink; space stations such as the ISS; scientific satellites like the Hubble; Earth observation satellites from companies like Planet Labs, Umbra, and HawkEye 360; GPS; miniature CubeSats for education and research; and military/defense satellites.

Not visible in the next 10 days
Identifier
45707, 2020-035BC
Orbit
Decayed
Country
Flag of USUS
Related business
Manufacturer
SpaceX/Seattle
Mission
Decayed Commercial Communications
Bus & Motor
STARLINK, Unknown motor
Mass
260 kg wet, ~248 kg dry
Launch date (UTC)
2020-06-04 (6 years ago)
Launch vehicle
FALCON 9
Launch site
Air Force Eastern Test Range (AFETR)
Object type
Payload
Rocket body
Debris
Shape & HBR
Box + 1 Pan, 10.1 m
Radar Cross Section
13.562 m², Large (>1 m²)

Expand to show TLE details & history
Last TLE update: 11 months ago

TLE from 11 months ago
0 STARLINK-1412
1 45707U 20035BC  25166.69197689  .13932622  12469-4  18987-3 0  9998
2 45707  53.0349  56.1306 0013554 239.1453 221.1591 16.48056526279883
Epoch: 2025-06-15T16:36Z
TLE epoch observation values (Epoch: 2025-06-15T16:36:26.803Z)
Latitude
52.00542°
Longitude
9.48611°
Altitude
157.328 km
Speed
7.814 km/s
True Right ascension
10h 51m 14s
True Declination
51° 49' 23"
Sunlit
Object was in daylight at epoch
Visualization orbit readout
Latitude
Unknown
Longitude
Unknown
Altitude
Unknown
Speed
Unknown
Apparent Right ascension
Unknown
Apparent Declination
Unknown
Sunlit
N/A
Visualization observer readout
Local Sidereal Time
14:59:36
Azimuth
Unknown
Elevation
Unknown
Doppler factor
Unknown
Orbital elements
Apogee altitude
153.59 km
Perigee altitude
135.908 km
Semi-major axis
6,522.886 km
Eccentricity
0.00136
Inclination
53.0349°
RAAN
56.1306°
Arg. of periapsis
239.1453°
True anomaly
221.05701°
Mean anomaly
221.1591°
Eccentric anomaly
221.10804°
Mean motion
4.11987 °/min
Orbital period
87.38 mins
BSTAR
0.00018987
Loading maneuver chart data...
Computing Atmospheric mass density...

Documentation

Showing up to 5 results
|